TimeEST,TemperatureF,Dew PointF,Humidity,Sea Level PressureIn,VisibilityMPH,Wind Direction,Wind SpeedMPH,Gust SpeedMPH,PrecipitationIn,Events,Conditions,WindDirDegrees,DateUTC
12:21 AM,44.6,42.8,93,29.85,5.0,WSW,5.8,-,0.03,Rain,Rain,240,2012-12-05 05:21:00
12:31 AM,44.6,42.8,93,29.85,5.0,WSW,5.8,-,0.05,Rain,Rain,240,2012-12-05 05:31:00
12:51 AM,44.1,42.1,93,29.86,5.0,SW,4.6,-,0.08,Rain,Light Rain,230,2012-12-05 05:51:00
1:00 AM,44.6,42.8,93,29.84,6.0,WSW,8.1,16.1,0.01,Rain,Light Rain,240,2012-12-05 06:00:00
1:51 AM,42.1,39.9,92,29.87,5.0,WSW,9.2,-,0.10,Rain,Rain,250,2012-12-05 06:51:00
2:15 AM,41.0,37.4,87,29.86,4.0,SW,15.0,21.9,0.05,Rain,Rain,230,2012-12-05 07:15:00
2:37 AM,39.2,37.4,93,29.85,10.0,WSW,10.4,16.1,0.06,Rain,Light Rain,240,2012-12-05 07:37:00
2:48 AM,39.2,37.4,93,29.85,10.0,SW,10.4,-,0.06,,Overcast,230,2012-12-05 07:48:00
2:49 AM,39.9,37.9,93,29.86,10.0,SW,10.4,-,0.06,,Overcast,230,2012-12-05 07:49:00
2:53 AM,39.2,37.4,93,29.85,10.0,SW,8.1,-,N/A,,Overcast,230,2012-12-05 07:53:00
3:51 AM,39.0,37.0,93,29.86,10.0,WSW,8.1,-,0.00,Rain,Light Rain,250,2012-12-05 08:51:00
4:03 AM,39.2,37.4,93,29.83,10.0,WSW,8.1,-,N/A,,Overcast,240,2012-12-05 09:03:00
4:46 AM,39.2,37.4,93,29.84,10.0,WSW,9.2,-,N/A,,Overcast,240,2012-12-05 09:46:00
4:51 AM,39.9,37.9,93,29.86,10.0,WSW,10.4,19.6,N/A,,Overcast,250,2012-12-05 09:51:00
5:17 AM,39.2,37.4,93,29.85,10.0,West,6.9,-,N/A,,Overcast,260,2012-12-05 10:17:00
5:51 AM,39.0,36.0,89,29.88,10.0,West,4.6,-,N/A,,Overcast,260,2012-12-05 10:51:00
6:51 AM,37.9,35.1,89,29.90,10.0,WSW,9.2,-,N/A,,Overcast,250,2012-12-05 11:51:00
7:18 AM,37.4,33.8,87,29.88,9.0,West,12.7,20.7,N/A,,Overcast,260,2012-12-05 12:18:00
7:39 AM,37.4,33.8,87,29.89,9.0,Variable,6.9,19.6,0.00,,Overcast,0,2012-12-05 12:39:00
7:51 AM,36.0,30.9,82,29.92,9.0,West,12.7,25.3,0.00,Rain,Light Rain,270,2012-12-05 12:51:00
9:51 AM,32.0,25.0,75,29.98,10.0,West,6.9,19.6,N/A,,Overcast,270,2012-12-05 14:51:00
10:51 AM,30.0,24.1,79,30.01,9.0,Variable,5.8,-,0.00,,Overcast,0,2012-12-05 15:51:00
11:51 AM,28.0,21.0,75,30.01,9.0,WNW,8.1,24.2,0.00,,Overcast,300,2012-12-05 16:51:00
12:09 PM,26.6,21.2,80,29.97,1.8,WNW,10.4,16.1,0.00,Snow,Light Snow,290,2012-12-05 17:09:00
12:51 PM,26.1,21.0,81,30.03,1.2,WNW,10.4,19.6,0.01,Snow,Light Snow,300,2012-12-05 17:51:00
1:00 PM,26.6,19.4,74,29.98,2.5,WNW,11.5,21.9,0.00,Snow,Light Snow,300,2012-12-05 18:00:00
1:07 PM,26.6,19.4,74,29.98,5.0,WNW,10.4,23.0,0.00,Snow,Light Snow,290,2012-12-05 18:07:00
1:37 PM,26.6,19.4,74,29.99,4.0,WNW,9.2,18.4,0.00,Snow,Light Snow,290,2012-12-05 18:37:00
1:48 PM,26.6,19.4,74,29.99,4.0,West,6.9,20.7,0.00,Snow,Light Snow,280,2012-12-05 18:48:00
1:51 PM,26.1,19.9,78,30.04,3.0,Variable,6.9,-,0.00,Snow,Light Snow,0,2012-12-05 18:51:00
2:03 PM,26.6,19.4,74,30.00,2.5,WNW,5.8,-,0.00,Snow,Light Snow,300,2012-12-05 19:03:00
2:20 PM,26.6,19.4,74,30.01,4.0,West,12.7,20.7,0.00,Snow,Light Snow,280,2012-12-05 19:20:00
2:42 PM,26.6,17.6,69,30.02,7.0,WNW,10.4,18.4,0.00,Snow,Light Snow,290,2012-12-05 19:42:00
2:51 PM,26.1,16.0,66,30.08,10.0,Variable,6.9,25.3,0.00,,Overcast,0,2012-12-05 19:51:00
3:31 PM,24.8,17.6,74,30.05,10.0,WNW,6.9,-,0.00,,Overcast,290,2012-12-05 20:31:00
3:51 PM,25.0,16.0,69,30.12,10.0,WNW,9.2,18.4,0.00,,Overcast,290,2012-12-05 20:51:00
4:06 PM,24.8,17.6,74,30.07,1.8,WNW,9.2,18.4,0.00,Snow,Light Snow,300,2012-12-05 21:06:00
4:23 PM,24.8,17.6,74,30.07,3.0,Variable,5.8,-,0.00,Snow,Light Snow,0,2012-12-05 21:23:00
4:51 PM,24.1,17.1,75,30.14,7.0,WNW,9.2,-,0.00,Snow,Light Snow,300,2012-12-05 21:51:00
5:51 PM,23.0,17.1,78,30.17,3.0,WNW,6.9,19.6,0.00,Snow,Light Snow,300,2012-12-05 22:51:00
6:31 PM,23.0,15.8,74,30.12,10.0,WNW,8.1,-,0.00,,Overcast,290,2012-12-05 23:31:00
6:51 PM,23.0,16.0,74,30.19,8.0,Variable,5.8,-,0.00,,Overcast,0,2012-12-05 23:51:00
7:44 PM,21.2,17.6,86,30.14,1.8,Variable,5.8,-,0.00,Snow,Light Snow,0,2012-12-06 00:44:00
7:51 PM,21.9,17.1,82,30.21,1.8,WNW,8.1,18.4,0.00,Snow,Light Snow,300,2012-12-06 00:51:00
8:51 PM,21.0,18.0,88,30.22,1.8,WNW,5.8,-,0.00,Snow,Light Snow,290,2012-12-06 01:51:00
9:19 PM,21.2,17.6,86,30.16,2.0,Variable,5.8,-,0.00,Snow,Light Snow,0,2012-12-06 02:19:00
9:36 PM,21.2,17.6,86,30.17,3.0,Calm,Calm,-,0.00,Snow,Light Snow,0,2012-12-06 02:36:00
10:51 PM,19.9,14.0,78,30.26,8.0,Variable,5.8,-,0.00,,Overcast,0,2012-12-06 03:51:00
11:35 PM,19.4,15.8,86,30.19,2.5,Variable,3.5,-,0.00,Snow,Light Snow,0,2012-12-06 04:35:00
11:43 PM,19.4,14.0,80,30.19,6.0,WNW,8.1,-,0.00,Snow,Light Snow,290,2012-12-06 04:43:00
11:51 PM,19.9,14.0,78,30.27,10.0,NW,5.8,-,0.00,,Overcast,310,2012-12-06 04:51:00